Time,TemperatureF,DewpointF,PressureIn,WindDirection,WindDirectionDegrees,WindSpeedMPH,WindSpeedGustMPH,Humidity,HourlyPrecipIn,Conditions,Clouds,dailyrainin,SoftwareType,DateUTC
2013-01-10 00:02:00,39.0,8.0,-100.00,SSE,156,12.0,23.0,27,-99.99,,,-99.99,,2013-01-10 07:02:00,
2013-01-10 00:11:00,38.0,8.0,-100.00,SSE,156,12.0,18.0,28,-99.99,,,-99.99,,2013-01-10 07:11:00,
2013-01-10 00:22:00,38.0,8.0,-100.00,SSE,156,12.0,18.0,28,-99.99,,,-99.99,,2013-01-10 07:22:00,
2013-01-10 01:01:00,36.0,10.0,-100.00,SE,146,16.0,24.0,34,-99.99,,,-99.99,,2013-01-10 08:01:00,
2013-01-10 01:11:00,34.0,11.0,-100.00,SSE,147,16.0,24.0,36,-99.99,,,-99.99,,2013-01-10 08:11:00,
2013-01-10 01:22:00,34.0,11.0,-100.00,SSE,147,16.0,24.0,36,-99.99,,,-99.99,,2013-01-10 08:22:00,
2013-01-10 01:32:00,34.0,11.0,-100.00,SSE,147,16.0,24.0,36,-99.99,,,-99.99,,2013-01-10 08:32:00,
2013-01-10 01:42:00,33.0,12.0,-100.00,SSE,151,16.0,32.0,40,-99.99,,,-99.99,,2013-01-10 08:42:00,
2013-01-10 01:53:00,33.0,12.0,-100.00,SSE,151,16.0,32.0,40,-99.99,,,-99.99,,2013-01-10 08:53:00,
2013-01-10 02:02:00,34.0,11.0,-100.00,SSE,155,13.0,22.0,38,-99.99,,,-99.99,,2013-01-10 09:02:00,
2013-01-10 02:12:00,35.0,11.0,-100.00,SSE,153,12.0,25.0,35,-99.99,,,-99.99,,2013-01-10 09:12:00,
2013-01-10 02:22:00,35.0,11.0,-100.00,SSE,153,12.0,25.0,35,-99.99,,,-99.99,,2013-01-10 09:22:00,
2013-01-10 02:32:00,35.0,11.0,-100.00,SSE,153,12.0,25.0,35,-99.99,,,-99.99,,2013-01-10 09:32:00,
2013-01-10 02:42:00,33.0,12.0,-100.00,SSE,148,15.0,24.0,41,-99.99,,,-99.99,,2013-01-10 09:42:00,
2013-01-10 02:52:00,33.0,12.0,-100.00,SSE,148,15.0,24.0,41,-99.99,,,-99.99,,2013-01-10 09:52:00,
2013-01-10 03:02:00,31.0,13.0,-100.00,SE,145,20.0,30.0,45,-99.99,,,-99.99,,2013-01-10 10:02:00,
2013-01-10 03:11:00,31.0,13.0,-100.00,SSE,152,22.0,33.0,46,-99.99,,,-99.99,,2013-01-10 10:11:00,
2013-01-10 03:22:00,31.0,13.0,-100.00,SSE,152,22.0,33.0,46,-99.99,,,-99.99,,2013-01-10 10:22:00,
2013-01-10 03:32:00,31.0,13.0,-100.00,SSE,152,22.0,33.0,46,-99.99,,,-99.99,,2013-01-10 10:32:00,
2013-01-10 03:42:00,31.0,13.0,-100.00,SE,146,18.0,27.0,45,-99.99,,,-99.99,,2013-01-10 10:42:00,
2013-01-10 03:52:00,31.0,13.0,-100.00,SE,146,18.0,27.0,45,-99.99,,,-99.99,,2013-01-10 10:52:00,
2013-01-10 04:02:00,32.0,13.0,-100.00,SSE,148,14.0,25.0,44,-99.99,,,-99.99,,2013-01-10 11:02:00,
2013-01-10 04:12:00,34.0,12.0,-100.00,SSE,150,12.0,17.0,40,-99.99,,,-99.99,,2013-01-10 11:12:00,
2013-01-10 04:22:00,34.0,12.0,-100.00,SSE,150,12.0,17.0,40,-99.99,,,-99.99,,2013-01-10 11:22:00,
2013-01-10 04:32:00,34.0,12.0,-100.00,SSE,150,12.0,17.0,40,-99.99,,,-99.99,,2013-01-10 11:32:00,
2013-01-10 04:42:00,32.0,13.0,-100.00,SE,143,17.0,27.0,45,-99.99,,,-99.99,,2013-01-10 11:42:00,
2013-01-10 04:53:00,32.0,13.0,-100.00,SE,143,17.0,27.0,45,-99.99,,,-99.99,,2013-01-10 11:53:00,
2013-01-10 05:02:00,30.0,13.0,-100.00,SE,142,16.0,26.0,47,-99.99,,,-99.99,,2013-01-10 12:02:00,
2013-01-10 05:12:00,30.0,13.0,-100.00,SE,146,15.0,24.0,48,-99.99,,,-99.99,,2013-01-10 12:12:00,
2013-01-10 05:22:00,30.0,13.0,-100.00,SE,146,15.0,24.0,48,-99.99,,,-99.99,,2013-01-10 12:22:00,
2013-01-10 05:32:00,30.0,13.0,-100.00,SE,146,15.0,24.0,48,-99.99,,,-99.99,,2013-01-10 12:32:00,
2013-01-10 05:42:00,31.0,13.0,-100.00,SE,146,14.0,22.0,46,-99.99,,,-99.99,,2013-01-10 12:42:00,
2013-01-10 05:53:00,31.0,13.0,-100.00,SE,146,14.0,22.0,46,-99.99,,,-99.99,,2013-01-10 12:53:00,
2013-01-10 06:02:00,31.0,14.0,-100.00,SE,144,13.0,22.0,47,-99.99,,,-99.99,,2013-01-10 13:02:00,
2013-01-10 06:12:00,31.0,14.0,-100.00,SE,146,13.0,29.0,47,-99.99,,,-99.99,,2013-01-10 13:12:00,
2013-01-10 06:22:00,31.0,14.0,-100.00,SE,146,13.0,29.0,47,-99.99,,,-99.99,,2013-01-10 13:22:00,
2013-01-10 06:32:00,31.0,14.0,-100.00,SE,146,13.0,29.0,47,-99.99,,,-99.99,,2013-01-10 13:32:00,
2013-01-10 06:42:00,32.0,14.0,-100.00,SE,145,16.0,29.0,47,-99.99,,,-99.99,,2013-01-10 13:42:00,
2013-01-10 06:53:00,32.0,14.0,-100.00,SE,145,16.0,29.0,47,-99.99,,,-99.99,,2013-01-10 13:53:00,
2013-01-10 07:02:00,31.0,14.0,-100.00,SE,146,17.0,29.0,48,-99.99,,,-99.99,,2013-01-10 14:02:00,
2013-01-10 07:12:00,30.0,14.0,-100.00,SE,142,20.0,32.0,51,-99.99,,,-99.99,,2013-01-10 14:12:00,
2013-01-10 07:22:00,30.0,14.0,-100.00,SE,142,20.0,32.0,51,-99.99,,,-99.99,,2013-01-10 14:22:00,
2013-01-10 07:32:00,30.0,14.0,-100.00,SE,142,20.0,32.0,51,-99.99,,,-99.99,,2013-01-10 14:32:00,
2013-01-10 07:43:00,29.0,14.0,-100.00,SE,144,23.0,36.0,52,-99.99,,,-99.99,,2013-01-10 14:43:00,
2013-01-10 07:53:00,29.0,14.0,-100.00,SE,144,23.0,36.0,52,-99.99,,,-99.99,,2013-01-10 14:53:00,
2013-01-10 08:03:00,28.0,14.0,-100.00,SE,140,25.0,37.0,54,-99.99,,,-99.99,,2013-01-10 15:03:00,
2013-01-10 08:12:00,28.0,14.0,-100.00,SE,136,29.0,45.0,55,-99.99,,,-99.99,,2013-01-10 15:12:00,
2013-01-10 08:22:00,28.0,14.0,-100.00,SE,136,29.0,45.0,55,-99.99,,,-99.99,,2013-01-10 15:22:00,
2013-01-10 08:32:00,28.0,14.0,-100.00,SE,136,29.0,45.0,55,-99.99,,,-99.99,,2013-01-10 15:32:00,
2013-01-10 08:43:00,27.0,14.0,-100.00,SE,138,27.0,41.0,56,-99.99,,,-99.99,,2013-01-10 15:43:00,
2013-01-10 08:53:00,27.0,14.0,-100.00,SE,138,27.0,41.0,56,-99.99,,,-99.99,,2013-01-10 15:53:00,
2013-01-10 09:02:00,28.0,14.0,-100.00,SE,143,25.0,38.0,55,-99.99,,,-99.99,,2013-01-10 16:02:00,
2013-01-10 09:12:00,28.0,14.0,-100.00,SE,145,22.0,32.0,54,-99.99,,,-99.99,,2013-01-10 16:12:00,
2013-01-10 09:22:00,28.0,14.0,-100.00,SE,145,22.0,32.0,54,-99.99,,,-99.99,,2013-01-10 16:22:00,
2013-01-10 09:32:00,28.0,14.0,-100.00,SE,145,22.0,32.0,54,-99.99,,,-99.99,,2013-01-10 16:32:00,
2013-01-10 09:42:00,29.0,14.0,-100.00,SE,145,22.0,36.0,52,-99.99,,,-99.99,,2013-01-10 16:42:00,
2013-01-10 09:53:00,29.0,14.0,-100.00,SE,145,22.0,36.0,52,-99.99,,,-99.99,,2013-01-10 16:53:00,
2013-01-10 10:02:00,29.0,13.0,-100.00,SE,142,22.0,32.0,52,-99.99,,,-99.99,,2013-01-10 17:02:00,
2013-01-10 10:12:00,28.0,14.0,-100.00,SE,142,20.0,30.0,53,-99.99,,,-99.99,,2013-01-10 17:12:00,
2013-01-10 10:22:00,28.0,14.0,-100.00,SE,142,20.0,30.0,53,-99.99,,,-99.99,,2013-01-10 17:22:00,
2013-01-10 10:33:00,28.0,14.0,-100.00,SE,142,20.0,30.0,53,-99.99,,,-99.99,,2013-01-10 17:33:00,
2013-01-10 10:42:00,28.0,14.0,-100.00,SSE,147,19.0,28.0,54,-99.99,,,-99.99,,2013-01-10 17:42:00,
2013-01-10 10:53:00,28.0,14.0,-100.00,SE,143,19.0,26.0,54,-99.99,,,-99.99,,2013-01-10 17:53:00,
2013-01-10 11:03:00,28.0,14.0,-100.00,SE,143,19.0,26.0,54,-99.99,,,-99.99,,2013-01-10 18:03:00,
2013-01-10 11:12:00,28.0,15.0,-100.00,SE,142,16.0,23.0,56,-99.99,,,-99.99,,2013-01-10 18:12:00,
2013-01-10 11:22:00,28.0,15.0,-100.00,SE,142,16.0,23.0,56,-99.99,,,-99.99,,2013-01-10 18:22:00,
2013-01-10 11:32:00,28.0,15.0,-100.00,SE,142,16.0,23.0,56,-99.99,,,-99.99,,2013-01-10 18:32:00,
2013-01-10 11:43:00,29.0,15.0,-100.00,SE,131,17.0,25.0,56,-99.99,,,-99.99,,2013-01-10 18:43:00,
2013-01-10 11:53:00,29.0,15.0,-100.00,SE,131,17.0,25.0,56,-99.99,,,-99.99,,2013-01-10 18:53:00,
2013-01-10 12:02:00,29.0,16.0,-100.00,SE,130,18.0,26.0,58,-99.99,,,-99.99,,2013-01-10 19:02:00,
2013-01-10 12:12:00,28.0,16.0,-100.00,SE,127,17.0,25.0,60,-99.99,,,-99.99,,2013-01-10 19:12:00,
2013-01-10 12:23:00,28.0,16.0,-100.00,SE,127,17.0,25.0,60,-99.99,,,-99.99,,2013-01-10 19:23:00,
2013-01-10 12:32:00,28.0,16.0,-100.00,SE,127,17.0,25.0,60,-99.99,,,-99.99,,2013-01-10 19:32:00,
2013-01-10 12:43:00,28.0,16.0,-100.00,SE,129,18.0,28.0,60,-99.99,,,-99.99,,2013-01-10 19:43:00,
2013-01-10 12:53:00,28.0,16.0,-100.00,SE,129,18.0,28.0,60,-99.99,,,-99.99,,2013-01-10 19:53:00,
2013-01-10 13:02:00,28.0,16.0,-100.00,SE,127,16.0,25.0,61,-99.99,,,-99.99,,2013-01-10 20:02:00,
2013-01-10 13:12:00,28.0,17.0,-100.00,ESE,122,15.0,26.0,62,-99.99,,,-99.99,,2013-01-10 20:12:00,
2013-01-10 13:32:00,28.0,17.0,-100.00,ESE,122,15.0,26.0,62,-99.99,,,-99.99,,2013-01-10 20:32:00,
2013-01-10 13:42:00,26.0,19.0,-100.00,SE,133,15.0,25.0,74,-99.99,,,-99.99,,2013-01-10 20:42:00,
2013-01-10 13:53:00,26.0,19.0,-100.00,SE,133,15.0,25.0,74,-99.99,,,-99.99,,2013-01-10 20:53:00,
2013-01-10 14:03:00,25.0,21.0,-100.00,SE,133,10.0,17.0,85,-99.99,,,-99.99,,2013-01-10 21:03:00,
2013-01-10 14:12:00,25.0,23.0,-100.00,SE,134,11.0,19.0,91,-99.99,,,-99.99,,2013-01-10 21:12:00,
2013-01-10 14:22:00,25.0,23.0,-100.00,SE,134,11.0,19.0,91,-99.99,,,-99.99,,2013-01-10 21:22:00,
2013-01-10 14:32:00,25.0,23.0,-100.00,SE,134,11.0,19.0,91,-99.99,,,-99.99,,2013-01-10 21:32:00,
2013-01-10 14:42:00,24.0,23.0,-100.00,SE,130,14.0,26.0,93,-99.99,,,-99.99,,2013-01-10 21:42:00,
2013-01-10 14:53:00,24.0,23.0,-100.00,SE,130,14.0,26.0,93,-99.99,,,-99.99,,2013-01-10 21:53:00,
2013-01-10 15:03:00,24.0,23.0,-100.00,SE,135,16.0,25.0,94,-99.99,,,-99.99,,2013-01-10 22:03:00,
2013-01-10 15:12:00,24.0,22.0,-100.00,SE,136,16.0,24.0,94,-99.99,,,-99.99,,2013-01-10 22:12:00,
2013-01-10 15:24:00,24.0,22.0,-100.00,SE,136,16.0,24.0,94,-99.99,,,-99.99,,2013-01-10 22:24:00,
2013-01-10 15:32:00,24.0,22.0,-100.00,SE,136,16.0,24.0,94,-99.99,,,-99.99,,2013-01-10 22:32:00,
2013-01-10 15:43:00,24.0,23.0,-100.00,SE,134,12.0,19.0,94,-99.99,,,-99.99,,2013-01-10 22:43:00,
2013-01-10 16:02:00,24.0,23.0,-100.00,SE,133,10.0,17.0,94,-99.99,,,-99.99,,2013-01-10 23:02:00,
2013-01-10 16:12:00,24.0,23.0,-100.00,SE,133,9.0,17.0,94,-99.99,,,-99.99,,2013-01-10 23:12:00,
2013-01-10 16:22:00,24.0,23.0,-100.00,SE,133,9.0,17.0,94,-99.99,,,-99.99,,2013-01-10 23:22:00,
2013-01-10 16:32:00,24.0,23.0,-100.00,SE,133,9.0,17.0,94,-99.99,,,-99.99,,2013-01-10 23:32:00,
2013-01-10 16:42:00,24.0,23.0,-100.00,SE,135,7.0,14.0,94,-99.99,,,-99.99,,2013-01-10 23:42:00,
2013-01-10 16:53:00,24.0,23.0,-100.00,SE,139,9.0,18.0,94,-99.99,,,-99.99,,2013-01-10 23:53:00,
2013-01-10 17:02:00,24.0,23.0,-100.00,SE,139,9.0,18.0,94,-99.99,,,-99.99,,2013-01-11 00:02:00,
2013-01-10 17:12:00,24.0,23.0,-100.00,SSE,156,4.0,11.0,95,-99.99,,,-99.99,,2013-01-11 00:12:00,
2013-01-10 17:23:00,24.0,23.0,-100.00,SSE,156,4.0,11.0,95,-99.99,,,-99.99,,2013-01-11 00:23:00,
2013-01-10 17:32:00,24.0,23.0,-100.00,SSE,156,4.0,11.0,95,-99.99,,,-99.99,,2013-01-11 00:32:00,
2013-01-10 17:42:00,23.0,22.0,-100.00,NNW,328,3.0,9.0,94,-99.99,,,-99.99,,2013-01-11 00:42:00,
2013-01-10 17:53:00,23.0,22.0,-100.00,NNW,328,3.0,9.0,94,-99.99,,,-99.99,,2013-01-11 00:53:00,
2013-01-10 18:02:00,23.0,22.0,-100.00,NNW,328,3.0,9.0,94,-99.99,,,-99.99,,2013-01-11 01:02:00,
2013-01-10 18:12:00,22.0,21.0,-100.00,West,261,6.0,15.0,93,-99.99,,,-99.99,,2013-01-11 01:12:00,
2013-01-10 18:22:00,22.0,21.0,-100.00,West,261,6.0,15.0,93,-99.99,,,-99.99,,2013-01-11 01:22:00,
2013-01-10 18:33:00,22.0,21.0,-100.00,West,261,6.0,15.0,93,-99.99,,,-99.99,,2013-01-11 01:33:00,
2013-01-10 18:42:00,19.0,17.0,-100.00,WSW,241,4.0,11.0,92,-99.99,,,-99.99,,2013-01-11 01:42:00,
2013-01-10 18:53:00,19.0,17.0,-100.00,WSW,241,4.0,11.0,92,-99.99,,,-99.99,,2013-01-11 01:53:00,
2013-01-10 19:02:00,18.0,16.0,-100.00,SW,233,4.0,11.0,92,-99.99,,,-99.99,,2013-01-11 02:02:00,
2013-01-10 19:12:00,18.0,16.0,-100.00,WSW,240,9.0,15.0,92,-99.99,,,-99.99,,2013-01-11 02:12:00,
2013-01-10 19:22:00,18.0,16.0,-100.00,WSW,240,9.0,15.0,92,-99.99,,,-99.99,,2013-01-11 02:22:00,
2013-01-10 19:32:00,18.0,16.0,-100.00,WSW,240,9.0,15.0,92,-99.99,,,-99.99,,2013-01-11 02:32:00,
2013-01-10 19:42:00,17.0,15.0,-100.00,WSW,244,7.0,16.0,91,-99.99,,,-99.99,,2013-01-11 02:42:00,
2013-01-10 19:54:00,17.0,15.0,-100.00,WSW,244,7.0,16.0,91,-99.99,,,-99.99,,2013-01-11 02:54:00,
2013-01-10 20:02:00,16.0,14.0,-100.00,SW,222,5.0,12.0,91,-99.99,,,-99.99,,2013-01-11 03:02:00,
2013-01-10 20:12:00,15.0,13.0,-100.00,SSW,203,4.0,10.0,91,-99.99,,,-99.99,,2013-01-11 03:12:00,
2013-01-10 20:22:00,15.0,13.0,-100.00,SSW,203,4.0,10.0,91,-99.99,,,-99.99,,2013-01-11 03:22:00,
2013-01-10 20:33:00,15.0,13.0,-100.00,SSW,203,4.0,10.0,91,-99.99,,,-99.99,,2013-01-11 03:33:00,
2013-01-10 20:42:00,15.0,13.0,-100.00,South,189,4.0,16.0,90,-99.99,,,-99.99,,2013-01-11 03:42:00,
2013-01-10 20:53:00,15.0,13.0,-100.00,South,189,4.0,16.0,90,-99.99,,,-99.99,,2013-01-11 03:53:00,
2013-01-10 21:02:00,15.0,13.0,-100.00,South,189,4.0,16.0,90,-99.99,,,-99.99,,2013-01-11 04:02:00,
2013-01-10 21:12:00,14.0,12.0,-100.00,East,99,4.0,12.0,90,-99.99,,,-99.99,,2013-01-11 04:12:00,
2013-01-10 21:22:00,14.0,12.0,-100.00,East,99,4.0,12.0,90,-99.99,,,-99.99,,2013-01-11 04:22:00,
2013-01-10 21:32:00,14.0,12.0,-100.00,East,99,4.0,12.0,90,-99.99,,,-99.99,,2013-01-11 04:32:00,
2013-01-10 21:42:00,14.0,11.0,-100.00,East,98,3.0,11.0,90,-99.99,,,-99.99,,2013-01-11 04:42:00,
2013-01-10 21:53:00,14.0,11.0,-100.00,East,98,3.0,11.0,90,-99.99,,,-99.99,,2013-01-11 04:53:00,
2013-01-10 22:03:00,13.0,11.0,-100.00,South,186,6.0,15.0,89,-99.99,,,-99.99,,2013-01-11 05:03:00,
2013-01-10 22:12:00,13.0,11.0,-100.00,SW,216,5.0,12.0,89,-99.99,,,-99.99,,2013-01-11 05:12:00,
2013-01-10 22:22:00,13.0,11.0,-100.00,SW,216,5.0,12.0,89,-99.99,,,-99.99,,2013-01-11 05:22:00,
2013-01-10 22:33:00,13.0,11.0,-100.00,SW,216,5.0,12.0,89,-99.99,,,-99.99,,2013-01-11 05:33:00,
2013-01-10 22:42:00,13.0,10.0,-100.00,WNW,291,3.0,9.0,89,-99.99,,,-99.99,,2013-01-11 05:42:00,
2013-01-10 22:53:00,13.0,10.0,-100.00,WNW,291,3.0,9.0,89,-99.99,,,-99.99,,2013-01-11 05:53:00,
2013-01-10 23:02:00,13.0,10.0,-100.00,West,273,3.0,10.0,89,-99.99,,,-99.99,,2013-01-11 06:02:00,
2013-01-10 23:12:00,13.0,10.0,-100.00,SW,219,3.0,9.0,89,-99.99,,,-99.99,,2013-01-11 06:12:00,
2013-01-10 23:22:00,13.0,10.0,-100.00,SW,219,3.0,9.0,89,-99.99,,,-99.99,,2013-01-11 06:22:00,
2013-01-10 23:32:00,13.0,10.0,-100.00,SW,219,3.0,9.0,89,-99.99,,,-99.99,,2013-01-11 06:32:00,
2013-01-10 23:42:00,13.0,10.0,-100.00,West,259,3.0,8.0,89,-99.99,,,-99.99,,2013-01-11 06:42:00,
2013-01-10 23:52:00,13.0,10.0,-100.00,West,259,3.0,8.0,89,-99.99,,,-99.99,,2013-01-11 06:52:00,